TimeEST,TemperatureF,Dew PointF,Humidity,Sea Level PressureIn,VisibilityMPH,Wind Direction,Wind SpeedMPH,Gust SpeedMPH,PrecipitationIn,Events,Conditions,WindDirDegrees,DateUTC
12:15 AM,44.6,43.2,95,30.42,0.5,Calm,Calm,-,N/A,,Drizzle,0,2013-11-06 05:15:00
12:35 AM,44.6,43.2,95,30.42,0.5,Calm,Calm,-,N/A,,Drizzle,0,2013-11-06 05:35:00
12:55 AM,44.6,43.2,95,30.42,0.5,Calm,Calm,-,N/A,,Drizzle,0,2013-11-06 05:55:00
1:55 AM,44.6,43.2,95,30.40,0.8,Calm,Calm,-,N/A,,Light Drizzle,0,2013-11-06 06:55:00
2:15 AM,44.6,43.5,96,30.40,0.8,Calm,Calm,-,N/A,,Light Drizzle,0,2013-11-06 07:15:00
2:35 AM,44.8,43.7,96,30.40,1.0,Calm,Calm,-,N/A,,Light Drizzle,0,2013-11-06 07:35:00
2:55 AM,45.0,43.7,95,30.39,0.8,Calm,Calm,-,N/A,,Drizzle,0,2013-11-06 07:55:00
3:15 AM,44.8,43.7,96,30.39,0.5,Calm,Calm,-,N/A,,Light Drizzle,0,2013-11-06 08:15:00
3:35 AM,44.8,43.7,96,30.38,0.5,Calm,Calm,-,N/A,Rain,Rain,0,2013-11-06 08:35:00
3:55 AM,45.0,43.7,95,30.38,0.5,Calm,Calm,-,N/A,Rain,Light Rain,0,2013-11-06 08:55:00
4:15 AM,45.0,43.7,95,30.37,0.2,Calm,Calm,-,N/A,Rain,Light Rain,0,2013-11-06 09:15:00
4:35 AM,45.0,43.7,95,30.37,0.2,Calm,Calm,-,N/A,Fog,Fog,0,2013-11-06 09:35:00
4:55 AM,45.5,44.1,95,30.36,0.2,Calm,Calm,-,N/A,Fog,Fog,0,2013-11-06 09:55:00
5:15 AM,45.7,44.6,96,30.36,1.0,Calm,Calm,-,N/A,,Overcast,0,2013-11-06 10:15:00
5:35 AM,45.7,44.6,96,30.36,0.5,Calm,Calm,-,N/A,Fog,Fog,0,2013-11-06 10:35:00
5:55 AM,46.0,44.8,95,30.36,0.5,Calm,Calm,-,N/A,Fog,Fog,0,2013-11-06 10:55:00
6:15 AM,46.0,44.8,95,30.36,0.2,Calm,Calm,-,N/A,Fog,Fog,0,2013-11-06 11:15:00
6:35 AM,46.4,45.0,95,30.36,0.2,Calm,Calm,-,N/A,Fog,Fog,0,2013-11-06 11:35:00
6:55 AM,46.4,45.0,95,30.36,0.2,Calm,Calm,-,N/A,Fog,Fog,0,2013-11-06 11:55:00
7:15 AM,46.6,45.5,96,30.36,0.2,Calm,Calm,-,N/A,Fog,Fog,0,2013-11-06 12:15:00
7:35 AM,46.6,45.5,96,30.36,0.2,Calm,Calm,-,N/A,Fog,Fog,0,2013-11-06 12:35:00
7:55 AM,46.6,45.5,96,30.36,0.2,Calm,Calm,-,N/A,Fog,Fog,0,2013-11-06 12:55:00
8:15 AM,46.4,45.3,96,30.36,0.2,SSE,4.6,-,N/A,Fog,Fog,160,2013-11-06 13:15:00
8:35 AM,46.6,45.5,96,30.37,0.2,Calm,Calm,-,N/A,Fog,Fog,0,2013-11-06 13:35:00
8:55 AM,46.8,45.5,95,30.37,0.2,SE,3.5,-,N/A,Fog,Fog,140,2013-11-06 13:55:00
9:15 AM,47.1,45.9,95,30.37,0.2,Calm,Calm,-,N/A,Fog,Fog,0,2013-11-06 14:15:00
9:35 AM,47.5,46.4,96,30.37,0.2,Calm,Calm,-,N/A,Fog,Fog,0,2013-11-06 14:35:00
9:55 AM,49.1,47.8,95,30.37,2.0,Calm,Calm,-,N/A,,Overcast,0,2013-11-06 14:55:00
10:15 AM,48.6,47.3,95,30.37,10.0,Calm,Calm,-,N/A,,Overcast,0,2013-11-06 15:15:00
10:35 AM,50.0,48.9,96,30.36,10.0,Calm,Calm,-,N/A,,Overcast,0,2013-11-06 15:35:00
10:55 AM,51.1,49.5,94,30.36,10.0,SSE,3.5,-,N/A,,Overcast,150,2013-11-06 15:55:00
11:15 AM,52.0,46.6,82,30.36,10.0,SSE,4.6,-,N/A,,Overcast,150,2013-11-06 16:15:00
11:35 AM,52.2,45.1,77,30.35,10.0,SE,4.6,-,N/A,,Overcast,140,2013-11-06 16:35:00
11:55 AM,54.5,42.6,64,30.34,10.0,SSE,4.6,-,N/A,,Overcast,160,2013-11-06 16:55:00
12:15 PM,55.4,42.1,61,30.33,10.0,SSE,6.9,-,N/A,,Overcast,160,2013-11-06 17:15:00
12:35 PM,55.8,43.0,62,30.32,10.0,SSE,6.9,-,N/A,,Overcast,160,2013-11-06 17:35:00
12:55 PM,57.2,43.9,61,30.31,10.0,SSE,3.5,-,N/A,,Overcast,150,2013-11-06 17:55:00
1:15 PM,56.5,43.7,62,30.30,10.0,SSE,5.8,-,N/A,,Overcast,150,2013-11-06 18:15:00
1:35 PM,58.3,44.4,60,30.29,10.0,SE,4.6,-,N/A,,Overcast,140,2013-11-06 18:35:00
1:55 PM,58.8,43.5,57,30.29,10.0,SSE,6.9,-,N/A,,Overcast,150,2013-11-06 18:55:00
2:15 PM,59.2,43.3,56,30.27,10.0,South,8.1,-,N/A,,Overcast,190,2013-11-06 19:15:00
2:35 PM,59.0,43.7,57,30.27,10.0,South,8.1,-,N/A,,Mostly Cloudy,170,2013-11-06 19:35:00
2:55 PM,58.5,43.0,56,30.26,10.0,SSE,5.8,-,N/A,,Scattered Clouds,160,2013-11-06 19:55:00
3:15 PM,58.8,43.3,56,30.25,10.0,South,3.5,-,N/A,,Scattered Clouds,180,2013-11-06 20:15:00
3:35 PM,58.6,43.5,57,30.25,10.0,Calm,Calm,-,N/A,,Scattered Clouds,0,2013-11-06 20:35:00
3:55 PM,58.6,44.6,60,30.25,10.0,SE,4.6,-,N/A,,Mostly Cloudy,130,2013-11-06 20:55:00
4:15 PM,56.5,44.2,64,30.24,10.0,SSE,4.6,-,N/A,,Scattered Clouds,150,2013-11-06 21:15:00
4:35 PM,55.9,44.4,65,30.24,10.0,SE,5.8,-,N/A,,Mostly Cloudy,140,2013-11-06 21:35:00
4:55 PM,55.4,45.5,69,30.24,10.0,ESE,5.8,-,N/A,,Overcast,120,2013-11-06 21:55:00
5:15 PM,53.6,45.5,74,30.23,10.0,ESE,4.6,-,N/A,,Mostly Cloudy,120,2013-11-06 22:15:00
5:35 PM,52.7,45.5,76,30.23,10.0,SE,3.5,-,N/A,,Scattered Clouds,140,2013-11-06 22:35:00
5:55 PM,51.8,45.5,79,30.22,10.0,Calm,Calm,-,N/A,,Clear,0,2013-11-06 22:55:00
6:15 PM,51.1,45.3,81,30.23,10.0,SE,4.6,-,N/A,,Clear,140,2013-11-06 23:15:00
6:35 PM,50.5,45.5,83,30.23,10.0,SSE,3.5,-,N/A,,Clear,150,2013-11-06 23:35:00
6:55 PM,49.8,45.9,86,30.22,10.0,SSE,3.5,-,N/A,,Clear,160,2013-11-06 23:55:00
7:15 PM,49.8,46.6,89,30.22,10.0,Calm,Calm,-,N/A,,Mostly Cloudy,0,2013-11-07 00:15:00
7:35 PM,50.0,46.0,86,30.22,10.0,SSE,3.5,-,N/A,,Mostly Cloudy,160,2013-11-07 00:35:00
7:55 PM,49.5,46.2,89,30.21,10.0,South,4.6,-,N/A,,Scattered Clouds,170,2013-11-07 00:55:00
8:15 PM,49.8,46.4,88,30.21,10.0,SSE,3.5,-,N/A,,Scattered Clouds,150,2013-11-07 01:15:00
8:35 PM,50.5,47.3,89,30.20,10.0,Calm,Calm,-,N/A,,Mostly Cloudy,0,2013-11-07 01:35:00
8:55 PM,51.1,47.1,86,30.20,10.0,Calm,Calm,-,N/A,,Scattered Clouds,0,2013-11-07 01:55:00
9:15 PM,50.4,47.1,89,30.20,10.0,SSE,3.5,-,N/A,,Scattered Clouds,160,2013-11-07 02:15:00
9:35 PM,50.4,47.3,89,30.19,10.0,SSE,3.5,-,N/A,,Mostly Cloudy,160,2013-11-07 02:35:00
9:55 PM,50.7,47.1,87,30.18,10.0,SSE,4.6,-,N/A,,Mostly Cloudy,160,2013-11-07 02:55:00
10:15 PM,51.3,47.5,87,30.18,10.0,SSE,3.5,-,N/A,,Scattered Clouds,160,2013-11-07 03:15:00
10:35 PM,50.9,47.1,87,30.17,10.0,SSE,4.6,-,N/A,,Mostly Cloudy,150,2013-11-07 03:35:00
10:55 PM,51.1,47.3,87,30.16,10.0,Calm,Calm,-,N/A,,Overcast,0,2013-11-07 03:55:00
11:15 PM,51.4,47.5,86,30.16,10.0,Calm,Calm,-,N/A,,Overcast,0,2013-11-07 04:15:00
11:35 PM,52.0,47.7,85,30.16,10.0,Calm,Calm,-,N/A,,Overcast,0,2013-11-07 04:35:00
11:55 PM,52.0,47.7,85,30.16,10.0,Calm,Calm,-,N/A,,Overcast,0,2013-11-07 04:55:00